Regional Weather Roundup
Issued by NWS

Home | Current Version | Previous Version | Graphics & Text | Print | Product List | Glossary On
Versions: 1 2 3 4 5 6 7 8 9 10 11 12 13 14 15 16 17 18 19 20 21 22 23 24 25 26 27 28 29 30 31 32 33 34 35 36 37 38 39 40 41 42 43 44 45 46 47 48 49 50
000
ASUS43 KLMK 010602
RWRKY
KENTUCKY REGIONAL WEATHER ROUNDUP
NATIONAL WEATHER SERVICE LOUISVILLE KY
200 AM EDT TUE SEP 01 2015

NOTE "FAIR" INDICATES FEW OR NO CLOUDS BELOW 12,000 FEET
WITH NO SIGNIFICANT WEATHER AND/OR OBSTRUCTIONS TO VISIBILITY.

KYZ001>023-026-027-061>063-070>075-010700-
WESTERN AND SOUTH CENTRAL KENTUCKY

CITY           SKY/WX    TMP DP  RH WIND       PRES   REMARKS
PADUCAH        FAIR      73  66  78 S5        30.08S
HENDERSON      FAIR      66  63  88 CALM      30.08S
OWENSBORO      MOCLDY    70  68  93 CALM      30.11R
HOPKINSVILLE   FAIR      71  67  87 CALM      30.10R
BOWLING GREEN  FAIR      70  66  87 CALM      30.11S
GLASGOW        NOT AVBL
$$

KYZ024-025-028>034-038-045-046-053-010700-
NORTH CENTRAL KENTUCKY

CITY           SKY/WX    TMP DP  RH WIND       PRES   REMARKS
LOUISVILLE/SDF FAIR      74  66  76 SE3       30.11R
LOUISVILLE/LOU FAIR      70  65  84 CALM      30.12S
FORT KNOX      FAIR      65  63  93 CALM      30.11R
$$

KYZ035>037-039>044-047>052-055>060-089>105-010700-
NORTHEAST KENTUCKY

CITY           SKY/WX    TMP DP  RH WIND       PRES   REMARKS
LEXINGTON      FAIR      69  64  84 CALM      30.14S
COVINGTON      FAIR      70  66  87 CALM      30.12S
FRANKFORT      FAIR      66  64  93 CALM      30.12S
$$

KYZ054-064>069-076>088-106>120-010700-
SOUTHEAST KENTUCKY

CITY           SKY/WX    TMP DP  RH WIND       PRES   REMARKS
JACKSON        FAIR      72  64  76 CALM      30.15S
LONDON         FAIR      67  62  84 CALM      30.15S
SOMERSET       NOT AVBL
MIDDLESBORO    FAIR      65  65  97 CALM      30.16S
MONTICELLO     FAIR      63  63 100 CALM      30.16F FOG
$$




USA.gov is the U.S. government's official web portal to all federal, state and local government web resources and services.